Regional Weather Roundup
Issued by NWS Cleveland, OH

Home | Current Version | Previous Version | Text Only | Print | Product List | Glossary Off
Versions: 1 2 3 4 5 6 7 8 9 10 11 12 13 14 15 16 17 18 19 20 21 22 23 24 25 26 27 28 29 30 31 32 33 34 35 36 37 38 39 40 41 42 43 44 45 46 47 48 49 50

000
ASUS41 KCLE 200010
RWRCLE
OHIO REGIONAL WEATHER ROUNDUP
NATIONAL WEATHER SERVICE CLEVELAND, OH
800 PM EDT FRI SEP 19 2014

NOTE: "FAIR" INDICATES FEW OR NO CLOUDS BELOW 12,000 FEET WITH NO
SIGNIFICANT WEATHER AND/OR OBSTRUCTIONS TO VISIBILITY.

OHZ001>008-015>018-024>027-034-035-043-044-200100-
   NORTHWEST OHIO

CITY           SKY/WX    TMP DP  RH WIND       PRES   REMARKS
DEFIANCE       PTCLDY    60  50  69 CALM      30.09S
FINDLAY        CLEAR     64  48  56 S3        30.09S
TOLEDO EXPRESS CLEAR     59  52  77 E5        30.09S
TOLEDO EXEC    CLEAR     58  51  78 E5        30.10F
LIMA           CLEAR     60  50  69 CALM      30.09F
$$

OHZ009>014-019>023-028>033-038-089-200100-
   NORTHEAST OHIO

CITY           SKY/WX    TMP DP  RH WIND       PRES   REMARKS
CLE-HOPKINS    PTCLDY    62  54  74 N3        30.13F
CLE-LAKEFRONT  CLEAR     66  52  60 SE5       30.10F
CUY CO. ARPT   MOCLDY    63  50  63 SE8       30.13F
LORAIN-ELYRIA  CLEAR     62  53  72 E6        30.12F
ASHTABULA      CLEAR     55  53  93 E3        30.14F
AKRON-CANTON   PTCLDY    67  50  54 CALM      30.13F
WOOSTER        CLEAR     58  50  75 CALM      30.13F
MANSFIELD      CLEAR     61  48  62 SE6       30.12F
YOUNGSTOWN     PTCLDY    61  55  81 E3        30.14F
$$

OHZ042-051>053-060>062-070>072-077>081-200100-
  SOUTHWEST OHIO

CITY           SKY/WX    TMP DP  RH WIND       PRES   REMARKS
CINC-COVINGTON PTCLDY    68  50  52 SE3       30.08S
CINC-LUNKEN    CLEAR     63  56  78 SE5       30.08F
HAMILTON       CLEAR     59  54  83 CALM      30.09S
DAYTON         PTCLDY    68  47  46 SE3       30.10F
WRIGHT-PAT AFB PTCLDY    64  53  68 CALM      30.08F
DAYTON GENERAL CLEAR     64  51  62 E3        30.08F
WILMINGTON     CLEAR     63  51  65 CALM      30.10S
$$

OHZ036-037-039>041-045>050-054>059-063>069-073>076-082>088-200100-
  CENTRAL AND SOUTHEAST OHIO

CITY           SKY/WX    TMP DP  RH WIND       PRES   REMARKS
COLUMBUS       PTCLDY    69  50  50 NE5       30.10S
OSU AIRPORT    CLEAR     66  49  54 E6        30.10S
BOLTON FIELD   CLEAR     63  51  64 CALM      30.10F
RICKENBACK AFB CLEAR     64  52  63 E5        30.09S
NEWARK         CLEAR     60  53  77 CALM      30.10F
MARION         CLEAR     62  47  57 SE3       30.11F
LANCASTER      CLEAR     62  54  74 CALM      30.10S
ZANESVILLE     CLEAR     65  54  67 CALM      30.11F
NEW PHILLY     CLEAR     62  57  83 CALM      30.13S
$$


USA.gov is the U.S. government's official web portal to all federal, state and local government web resources and services.